Regional Weather Roundup
Issued by NWS

Home | Current Version | Previous Version | Graphics & Text | Print | Product List | Glossary On
Versions: 1 2 3 4 5 6 7 8 9 10 11 12 13 14 15 16 17 18 19 20 21 22 23 24 25 26 27 28 29 30 31 32 33 34 35 36 37 38 39 40 41 42 43 44 45 46 47 48 49 50
138
ASUS45 KBOU 190607
RWRCO

WEATHER ROUNDUP FOR COLORADO
NATIONAL WEATHER SERVICE DENVER/BOULDER CO
1200 AM MDT SAT AUG 19 2017

NOTE: "FAIR" INDICATES FEW OR NO CLOUDS BELOW 12000 FEET WITH NO
SIGNIFICANT WEATHER AND/OR OBSTRUCTIONS TO VISIBILITY.

COZ001>005-013-030-031-190700-
...NORTHWEST COLORADO...

CITY           SKY/WX    TMP DP  RH WIND       PRES   REMARKS
CRAIG          FAIR      54  39  57 E5        30.21S
HAYDEN         FAIR      59  33  37 E7        30.25F
MEEKER         FAIR      57  34  41 NE7       30.24S
RABBIT EARS PA FAIR      54  28  37 W7        30.55S
STEAMBOAT SPGS FAIR      56  36  47 CALM      30.28R
WALDEN         FAIR      45  32  61 SE10      30.37S
$$

COZ006>008-011-190700-
...WEST CENTRAL VALLEYS...

CITY           SKY/WX    TMP DP  RH WIND       PRES   REMARKS
GRAND JUNCTION FAIR      71  30  21 SE8       30.09S
MONTROSE       FAIR      66  40  38 SE10      30.21F
EAGLE          FAIR      58  34  40 E6        30.28S
RIFLE          FAIR      63  31  30 S5        30.17S
DELTA          FAIR      69  35  28 NE3       30.16S
NUCLA          FAIR      66  32  28 E13       30.24S
$$

COZ017>023-064>068-190700-
...SOUTHWEST COLORADO...

CITY           SKY/WX    TMP DP  RH WIND       PRES   REMARKS
DURANGO        FAIR      61  36  39 CALM      30.26F
CORTEZ         FAIR      58  37  45 NE6       30.21S
PAGOSA SPRINGS FAIR      55  33  43 CALM      30.36S
TELLURIDE      FAIR      56  35  45 SE6       30.49S
WOLF CREEK PAS NOT AVBL
$$

COZ009-010-012-014-032>034-037-058>063-190700-
...CENTRAL COLORADO...

CITY           SKY/WX    TMP DP  RH WIND       PRES   REMARKS
ASPEN          FAIR      53  37  54 SW8       30.36S
BUENA VISTA    FAIR      57  33  39 NW9       30.38S
COPPER MTN     FAIR      54  28  37 W8        30.68S
BERTHOUD PASS  FAIR      45  39  81 W20       30.69F
COTTONWOOD PAS MOCLDY    63  28  27 CALM      30.53S
GUNNISON       FAIR      51  40  65 CALM      30.38S
KREMMLING      FAIR      57  41  54 CALM      30.34R
LEADVILLE      FAIR      48  32  53 CALM      30.50F
MONARCH PASS   CLOUDY    52  27  37 NW3       30.78F
SALIDA         FAIR      63  36  36 W6        30.42S
SUNLIGHT       FAIR      55  23  28 N3        30.60F
WILKERSON PASS FAIR      52  32  46 S13G24    30.65F
$$

COZ069>075-190700-
...SAN LUIS VALLEY/SANGRE DE CRISTO MOUNTAINS...

CITY           SKY/WX    TMP DP  RH WIND       PRES   REMARKS
ALAMOSA        FAIR      57  39  51 VRB3      30.32S
DEL NORTE      FAIR      60  37  41 SW9       30.37S
LA VETA PASS   NOT AVBL
SAGUACHE       MOCLDY    61  36  39 N9        30.36S
$$

COZ035-036-038>040-190700-
...NORTHERN COLORADO FRONT RANGE...

CITY           SKY/WX    TMP DP  RH WIND       PRES   REMARKS
DENVER INTL AP FAIR      66  47  50 S13       30.15F
DMNS CITY PARK   N/A     69  46  43 S5G13     30.14S
AURORA         PTCLDY    71  47  43 S14G24    30.17S
FRONT RANGE AP FAIR      70  50  49 S13G21    30.16S
ERIE MUNI ARPT FAIR      60  47  62 CALM      30.17F
BOULDER MUN AP FAIR      72  41  33 W5        30.13S
CENTENNIAL     FAIR      67  44  43 S12       30.19S
BROOMFIELD     NOT AVBL
FORT COLLINS   FAIR      67  54  63 NE8       30.12F
LONGMONT       FAIR      66  48  51 SW6       30.13F
$$

COZ041-046-047-076>085-087-088-190700-
...PIKES PEAK/PALMER DIVIDE AND SOUTHERN FOOTHILLS...

CITY           SKY/WX    TMP DP  RH WIND       PRES   REMARKS
COLO. SPRINGS  FAIR      67  50  54 E3        30.29R
A. F. ACADEMY  FAIR      65  44  46 SE13      30.28F
SCHRIEVER AFB  FAIR      62  51  67 E5        30.27S
CHEYENNE MTN   FAIR      67  44  43 S8        30.27S
ELLICOTT       NOT AVBL
FALCON         FAIR      60  49  66 SW6       30.33S
FORT CARSON    FAIR      67  47  48 CALM      30.24S
LIMON          FAIR      56  54  93 CALM      30.20S
MONUMENT HILL  FAIR      61  48  63 S13       30.31F
CANON CITY     CLEAR     72  48  43 N12       30.18F
WALSENBURG     FAIR      66  41  39 SW9       30.20F
TRINIDAD       FAIR      66  52  60 SW6       30.20F
$$

COZ042>045-048>051-090-091-190700-
...NORTHEAST COLORADO...

CITY           SKY/WX    TMP DP  RH WIND       PRES   REMARKS
GREELEY ARPT   FAIR      64  53  67 NE5       30.11F
AKRON          FAIR      65  50  58 S13       30.13S
BURLINGTON     FAIR      62  56  80 S9        30.13S
WRAY           NOT AVBL
YUMA           FAIR      57  43  58 S7        30.11S
STERLING       FAIR      61  52  72 W7        30.07F
HOLYOKE        FAIR      61  54  77 S7        30.08S
FORT MORGAN    FAIR      66  49  55 SE5       30.12S
$$

COZ086-089-092>099-190700-
...SOUTHEAST COLORADO...

CITY           SKY/WX    TMP DP  RH WIND       PRES   REMARKS
PUEBLO         FAIR      69  52  54 NE9       30.12F
LA JUNTA       FAIR      68  56  65 E5        30.11S
LAMAR          FAIR      65  59  81 E5        30.08S
SPRINGFIELD      N/A     64  64 100 SW6       30.13S
$$




USA.gov is the U.S. government's official web portal to all federal, state and local government web resources and services.